Location: Unspecified
(0.0000°N, 0.0000°E)
Time: 00:29:12
(UTC+00:00)

COSMOS 2401 - Visible Passes

Search period start: 27 February 2021 00:00
Search period end: 09 March 2021 00:00
Orbit: 1466 x 1500 km, 82.5° (Epoch: 26 February)

Date Brightness Start Highest point End Pass type
(mag) Time Alt. Az. Time Alt. Az. Time Alt. Az.
27 Feb 7.8 19:08:30 10° SSE 19:16:03 34° E 19:23:35 10° NNE visible
27 Feb 8.8 21:05:04 10° SW 21:12:13 30° W 21:19:26 10° NNW visible
28 Feb 7.5 20:11:35 10° S 20:20:09 69° W 20:28:43 10° N visible
01 Mar 7.4 19:19:42 10° SSE 19:28:04 54° E 19:36:25 10° NNE visible
01 Mar 9.4 21:18:59 10° SW 21:24:15 18° W 21:29:32 10° NW visible
02 Mar 8.3 18:29:40 10° SE 18:35:59 23° E 18:42:17 10° NE visible
02 Mar 8.3 20:24:07 10° SSW 20:32:09 44° W 20:40:14 10° NNW visible
03 Mar 7.3 19:31:25 10° S 19:40:05 84° E 19:48:44 10° N visible
04 Mar 7.8 18:40:16 10° SSE 18:48:00 37° E 18:55:43 10° NNE visible
04 Mar 9.0 20:37:14 10° SW 20:44:10 27° W 20:51:09 10° NNW visible
05 Mar 7.7 19:43:35 10° SSW 19:52:06 65° W 20:00:38 10° N visible
06 Mar 7.4 18:51:34 10° S 19:00:01 58° E 19:08:28 10° NNE visible
06 Mar 9.7 20:51:24 10° WSW 20:56:12 16° W 21:01:02 10° NW visible
07 Mar 10.5 05:34:07 10° ENE 05:35:55 11° E 05:37:42 10° E visible
07 Mar 8.5 19:56:12 10° SSW 20:04:06 41° W 20:12:04 10° NNW visible
08 Mar 7.4 19:03:22 10° S 19:12:02 89° E 19:20:43 10° N visible
